{"data":{"norad_id":59856,"intl_designator":"2024-097X","name":"STARLINK-31691","alt_names":[],"object_type":"PAYLOAD","status":"ACTIVE","operator":null,"country":"US","launch_date":"2024-05-23","launch_site_code":"AFETR","launch_vehicle":null,"mission":null,"orbit_class":"UNKNOWN","rcs_meters":null,"size_class":null,"mass_kg":null,"dimensions":null,"purposes":["comms"],"wikipedia_slug":null,"has_3d_model":false,"image_url":null,"decayed_at":null,"tle_current":{"epoch":"2026-05-25T04:56:10.092768Z","epoch_age_seconds":64238,"freshness":"FRESH","line1":"1 59856U 24097X   26145.20567237 -.00000826  00000+0 -20512-4 0  9996","line2":"2 59856  43.0025 201.8275 0001390 286.9247  73.1452 15.27577367113620","mean_motion":15.27577367,"eccentricity":0.000139,"inclination_deg":43.0025,"raan_deg":201.8275,"arg_perigee_deg":286.9247,"mean_anomaly_deg":73.1452,"bstar":-2.0512e-5,"rev_number":11362,"period_min":94.266911195994,"perigee_km":482.10327423695,"apogee_km":484.01068616344,"semimajor_km":6861.1939802002,"source":"CELESTRAK","updated_at":"2026-05-25T13:38:19.089592Z"}}}